Torna al catalogo

COSMOS 2251 DEB

AttivoLEO
NORAD 46271·DEBRIS·🇷🇺 Russia

Lanciato Jun 16, 1993 da Plesetsk Cosmodrome

Loading…

Prossimi Passaggi (prossime 24 ore)

TLE

AggiornatoSource: Space-Track

Epoca: Sep 13, 2026, 18:53 UTC

1 46271U 93036BWT 26256.78705536  .00000550  00000-0  14205-3 0  9998
2 46271  74.0442 280.5920 0040967 328.8619  31.0115 14.51955886886333

Traccia COSMOS 2251 DEB in tempo reale con AllMySat

Download on the App Store